Location: Henham
(51.9333°N, 0.2500°E)
Time: 21:37:15
(UTC+00:00)

Cosmos 2151 - Pass Details

Date: 23 October 2019
Orbit: 582 x 600 km, 82.5° (Epoch: 11 November)

Event Time Altitude Azimuth Distance (km) Brightness Sun altitude
Rises 19:31:40 0° 345° (NNW) 2,863 6.9 -25.6°
Reaches altitude 10° 19:33:56 10° 340° (NNW) 1,956 6.0 -25.9°
Maximum altitude 19:38:06 48° 266° (W) 792 3.9 -26.6°
Enters shadow 19:39:07 39° 225° (SW) 903 4.0 -26.7°
